Weather History for KY63 - January, 2013

Change the Weather History Date:

Thursday, January 31, 2013

  Actual Average (KFFM) Record (KFFM)
Temperature  
Mean Temperature -10 °F -  
Max Temperature -4 °F 19 °F 39 °F (1987)
Min Temperature -16 °F 0 °F -30 °F (1982)
Degree Days  
Heating Degree Days 75    
Moisture  
Dew Point -15 °F    
Average Humidity 76    
Maximum Humidity 85    
Minimum Humidity 70    
Precipitation  
Precipitation 0.00 in - - ()
Sea Level Pressure  
Sea Level Pressure 30.10 in    
Wind  
Wind Speed 19 mph (NW)    
Max Wind Speed 25 mph    
Max Gust Speed 32 mph    
Visibility 5 miles    
Events Snow    
Averages and records for this station are not official NWS values.
T = Trace of Precipitation, MM = Missing Value Source: NWS Daily Summary

Daily Weather History Graph

Daily Weather History Graph

Search for Another Location

Airport or City:

Trip Planner

Search our weather history database for the weather conditions in past years. The results will help you decide how hot, cold, wet, or windy it might be!

Date:

Astronomy

Jan. 31, 2013 Rise Set
Actual Time 7:47 AM CST 5:28 PM CST
Civil Twilight 7:15 AM CST 6:00 PM CST
Nautical Twilight 6:39 AM CST 6:36 PM CST
Astronomical Twilight 6:04 AM CST 7:11 PM CST
Moon 10:52 PM CST (1/31) 9:28 AM CST (1/31)
Length of Visible Light 10h 45m
Length of Day
9h 41m
Waning Gibbous, 79% of the Moon is Illuminated
Jan 31
Waning Gibbous
Feb 3
Last Quarter
Feb 10
New
Feb 17
First Quarter
Feb 25
Full

Hourly Weather History & Observations

Time (CST) Temp. Windchill Dew Point Humidity Pressure Visibility Wind Dir Wind Speed Gust Speed Precip Events Conditions
12:15 AM -4.0 °F -26.4 °F -7.6 °F 85% 29.84 in 2.5 mi NW 18.4 mph - N/A   Overcast
12:35 AM -5.8 °F -29.4 °F -9.4 °F 84% 29.85 in 2.5 mi NW 19.6 mph 24.2 mph N/A   Overcast
12:55 AM -5.8 °F -28.8 °F -9.4 °F 84% 29.86 in 4.0 mi NW 18.4 mph 24.2 mph N/A   Mostly Cloudy
1:15 AM -5.8 °F -26.8 °F -9.4 °F 84% 29.86 in 4.0 mi NW 15.0 mph - N/A   Overcast
1:35 AM -5.8 °F -28.2 °F -9.4 °F 84% 29.87 in 4.0 mi NW 17.3 mph - N/A   Haze
1:55 AM -5.8 °F -29.4 °F -9.4 °F 84% 29.87 in 5.0 mi NW 19.6 mph - N/A   Overcast
2:15 AM -5.8 °F -29.4 °F -11.2 °F 77% 29.87 in 5.0 mi NW 19.6 mph 23.0 mph N/A   Haze
2:35 AM -7.6 °F -31.7 °F -11.2 °F 84% 29.89 in 4.0 mi NW 19.6 mph 24.2 mph N/A   Overcast
2:55 AM -7.6 °F -31.1 °F -13.0 °F 77% 29.89 in 4.0 mi NW 18.4 mph 26.5 mph N/A   Haze
3:15 AM -7.6 °F -32.3 °F -13.0 °F 77% 29.90 in 4.0 mi NW 20.7 mph 27.6 mph N/A   Haze
3:35 AM -7.6 °F -31.1 °F -13.0 °F 77% 29.90 in 3.0 mi NW 18.4 mph - N/A   Haze
3:55 AM -9.4 °F -34.7 °F -14.8 °F 77% 29.91 in 4.0 mi NW 20.7 mph - N/A   Haze
4:15 AM -9.4 °F -34.1 °F -14.8 °F 77% 29.91 in 3.0 mi NW 19.6 mph 26.5 mph N/A   Haze
4:35 AM -9.4 °F -34.7 °F -14.8 °F 77% 29.92 in 5.0 mi NW 20.7 mph 24.2 mph N/A   Haze
4:55 AM -9.4 °F -33.5 °F -14.8 °F 77% 29.93 in 5.0 mi NW 18.4 mph 23.0 mph N/A   Haze
5:15 AM -9.4 °F -34.1 °F -14.8 °F 77% 29.94 in 4.0 mi NW 19.6 mph 24.2 mph N/A   Haze
5:35 AM -9.4 °F -32.8 °F -14.8 °F 77% 29.95 in 5.0 mi NW 17.3 mph - N/A   Haze
5:55 AM -9.4 °F -32.8 °F -14.8 °F 77% 29.96 in 3.0 mi NW 17.3 mph - N/A   Haze
6:15 AM -9.4 °F -34.1 °F -14.8 °F 77% 29.96 in 2.0 mi NW 19.6 mph 25.3 mph N/A   Haze
6:35 AM -9.4 °F -34.1 °F -14.8 °F 77% 29.97 in 2.0 mi NW 19.6 mph 24.2 mph N/A   Haze
6:55 AM -9.4 °F -34.1 °F -14.8 °F 77% 29.99 in 1.8 mi NW 19.6 mph 27.6 mph N/A   Haze
7:15 AM -9.4 °F -36.3 °F -14.8 °F 77% 29.99 in 0.8 mi NW 24.2 mph 28.8 mph N/A Snow Light Snow
7:35 AM -9.4 °F -33.5 °F -14.8 °F 77% 30.01 in 0.8 mi NW 18.4 mph 26.5 mph N/A Snow Light Snow
7:55 AM -9.4 °F -35.2 °F -14.8 °F 77% 30.01 in 0.5 mi NW 21.9 mph 28.8 mph N/A Snow Snow
8:15 AM -9.4 °F -35.2 °F -14.8 °F 77% 30.03 in 0.2 mi NW 21.9 mph 26.5 mph N/A Snow Light Snow
8:35 AM -9.4 °F -35.2 °F -14.8 °F 77% 30.04 in 0.2 mi NW 21.9 mph 28.8 mph N/A Snow Light Snow
8:55 AM -9.4 °F -34.7 °F -14.8 °F 77% 30.05 in 0.2 mi NW 20.7 mph 25.3 mph N/A Snow Light Snow
9:15 AM -9.4 °F -35.2 °F -14.8 °F 77% 30.07 in 0.5 mi NW 21.9 mph 27.6 mph N/A   Haze
9:35 AM -9.4 °F -36.3 °F -14.8 °F 77% 30.07 in 1.0 mi NW 24.2 mph 32.2 mph N/A   Haze
9:55 AM -9.4 °F -36.3 °F -14.8 °F 77% 30.09 in 0.8 mi NW 24.2 mph 31.1 mph N/A   Haze
10:15 AM -9.4 °F -35.8 °F -14.8 °F 77% 30.10 in 0.8 mi NW 23.0 mph - N/A   Haze
10:35 AM -7.6 °F -33.4 °F -13.0 °F 77% 30.11 in 0.8 mi NW 23.0 mph 27.6 mph N/A   Haze
10:55 AM -7.6 °F -32.9 °F -14.8 °F 71% 30.12 in 1.2 mi NW 21.9 mph 29.9 mph N/A   Haze
11:15 AM -7.6 °F -33.9 °F -13.0 °F 77% 30.13 in 0.8 mi NW 24.2 mph 29.9 mph N/A   Haze
11:35 AM -7.6 °F -33.4 °F -14.8 °F 71% 30.13 in 2.5 mi NW 23.0 mph 29.9 mph N/A   Haze
11:55 AM -7.6 °F -33.9 °F -14.8 °F 71% 30.14 in 1.2 mi NW 24.2 mph 31.1 mph N/A   Haze
12:15 PM -9.4 °F -35.8 °F -14.8 °F 77% 30.15 in 3.0 mi NW 23.0 mph 31.1 mph N/A   Haze
12:35 PM -9.4 °F -36.3 °F -14.8 °F 77% 30.16 in 1.5 mi NW 24.2 mph 28.8 mph N/A   Haze
12:55 PM -7.6 °F -33.9 °F -14.8 °F 71% 30.16 in 3.0 mi NW 24.2 mph 29.9 mph N/A   Haze
1:15 PM -7.6 °F -34.4 °F -14.8 °F 71% 30.17 in 3.0 mi NW 25.3 mph - N/A   Haze
1:35 PM -7.6 °F -33.4 °F -14.8 °F 71% 30.17 in 3.0 mi NW 23.0 mph 29.9 mph N/A   Haze
1:55 PM -7.6 °F -32.3 °F -14.8 °F 71% 30.18 in 1.2 mi NW 20.7 mph 27.6 mph N/A   Haze
2:15 PM -7.6 °F -32.3 °F -14.8 °F 71% 30.18 in 2.5 mi NW 20.7 mph - N/A   Haze
2:35 PM -7.6 °F -32.9 °F -14.8 °F 71% 30.19 in 5.0 mi NW 21.9 mph - N/A   Haze
2:55 PM -7.6 °F -32.9 °F -14.8 °F 71% 30.19 in 3.0 mi NW 21.9 mph - N/A   Haze
3:15 PM -7.6 °F -33.9 °F -14.8 °F 71% 30.20 in 2.5 mi NW 24.2 mph 27.6 mph N/A   Haze
3:35 PM -7.6 °F -32.9 °F -14.8 °F 71% 30.21 in 4.0 mi NW 21.9 mph 27.6 mph N/A   Haze
3:55 PM -7.6 °F -32.3 °F -14.8 °F 71% 30.21 in 10.0 mi NW 20.7 mph - N/A   Scattered Clouds
4:15 PM -7.6 °F -31.1 °F -14.8 °F 71% 30.22 in 10.0 mi NW 18.4 mph - N/A   Clear
4:35 PM -7.6 °F -30.5 °F -13.0 °F 77% 30.22 in 2.0 mi NW 17.3 mph 21.9 mph N/A   Haze
4:55 PM -7.6 °F -31.7 °F -14.8 °F 71% 30.22 in 4.0 mi NW 19.6 mph 26.5 mph N/A   Haze
5:15 PM -7.6 °F -29.8 °F -14.8 °F 71% 30.23 in 7.0 mi NW 16.1 mph - N/A   Scattered Clouds
5:35 PM -9.4 °F -32.1 °F -16.6 °F 71% 30.24 in 10.0 mi NW 16.1 mph - N/A   Scattered Clouds
5:55 PM -9.4 °F -30.6 °F -14.8 °F 77% 30.24 in 7.0 mi NW 13.8 mph - N/A   Clear
6:35 PM -9.4 °F -31.4 °F -16.6 °F 71% 30.25 in 10.0 mi NW 15.0 mph - N/A   Clear
6:55 PM -11.2 °F -33.7 °F -16.6 °F 77% 30.25 in 10.0 mi NW 15.0 mph - N/A   Clear
7:15 PM -11.2 °F -32.9 °F -16.6 °F 77% 30.25 in 10.0 mi WNW 13.8 mph - N/A   Clear
7:35 PM -11.2 °F -32.9 °F -18.4 °F 70% 30.25 in 10.0 mi WNW 13.8 mph - N/A   Clear
7:55 PM -13.0 °F -34.3 °F -18.4 °F 77% 30.25 in 10.0 mi WNW 12.7 mph - N/A   Clear
8:15 PM -13.0 °F -34.3 °F -18.4 °F 77% 30.25 in 10.0 mi WNW 12.7 mph - N/A   Clear
8:35 PM -13.0 °F -33.4 °F -18.4 °F 77% 30.26 in 10.0 mi WNW 11.5 mph - N/A   Clear
8:55 PM -13.0 °F -33.4 °F -18.4 °F 77% 30.26 in 10.0 mi NW 11.5 mph - N/A   Clear
9:15 PM -13.0 °F -32.4 °F -18.4 °F 77% 30.27 in 10.0 mi WNW 10.4 mph - N/A   Clear
9:35 PM -14.8 °F -33.5 °F -20.2 °F 77% 30.27 in 10.0 mi WNW 9.2 mph - N/A   Clear
9:55 PM -14.8 °F -33.5 °F -20.2 °F 77% 30.27 in 10.0 mi WNW 9.2 mph - N/A   Clear
10:15 PM -14.8 °F -34.6 °F -20.2 °F 77% 30.27 in 10.0 mi NW 10.4 mph - N/A   Clear
10:35 PM -14.8 °F -33.5 °F -20.2 °F 77% 30.27 in 10.0 mi NW 9.2 mph - N/A   Clear
10:55 PM -16.6 °F -34.4 °F -22.0 °F 76% 30.27 in 10.0 mi WNW 8.1 mph - N/A   Clear
11:15 PM -16.6 °F -32.9 °F -22.0 °F 76% 30.27 in 10.0 mi WNW 6.9 mph - N/A   Clear
11:35 PM -16.6 °F -31.3 °F -22.0 °F 76% 30.26 in 10.0 mi WNW 5.8 mph - N/A   Clear
11:55 PM -16.6 °F -31.3 °F -22.0 °F 76% 30.26 in 10.0 mi WNW 5.8 mph - N/A   Clear